sat.trackr.live / text

‹ back to catalog

STARLINK-6281

NORAD 56410 · 2023-061AN

PAYLOAD ACTIVE UNKNOWN

§ Identity

Operator
Country
US
Launch date
2023-05-04
Launch site
AFETR
Launch vehicle
Mass (kg)
RCS (m²)

Purposes: comms

External: N2YO · Heavens-Above · Gunter

§ Orbital elements

Epoch: 2026-09-20T02:41:29.194944Z

Period
94.27 min
Inclination
43.0028°
Eccentricity
0.0000794
Mean motion
15.27576680 rev/d
Perigee alt
482.5 km
Apogee alt
483.6 km
Semi-major
6,861.2 km
B*
1.1273e-5
RAAN
168.6396°
Arg perigee
251.0374°
Mean anomaly
109.0391°
Rev number
18,661

§ Raw data

STARLINK-62811 56410U 23061AN  26263.11214346  .00000048  00000+0  11273-4 0  99982 56410  43.0028 168.6396 0000794 251.0374 109.0391 15.27576680186618

JSON: /api/v1/satellites/56410 · /tle

For live sub-satellite position, see the globe view (requires WebGL).

§ Visibility from observer

Set your observer location to see the next 7 days of passes ≥ 10°. The values pass through the URL so the page stays shareable.

No JS? Fill the form by hand. The geolocation button needs JavaScript.